Weather in Pas'va

Russia / Arkhangel'skaya Oblast'     61°35′03″N   42°42′56″E
temp.,
°C
wind,
m/s
gust,
m/s
humid.,
%
clouds,
%
prec.,
mm/h
press.,
hPa
HPBL,
m
9 may, sun
sun900:00+9sse3877100 0.1 1009380
03:00+8e3883100 0.1 1007276
06:00+7se41190100 1.1 1005638
09:00+8sse31095100 3.4 1004636
12:00+8wnw2597100 1.7 1006320
15:00+6wnw3793100 2.4 1009462
18:00+6wnw3786100 0.2 1012770
21:00+4wnw2889100 0.3 1014401
10 may, mon
mon1000:00+4nw31090100 0.0 1017556
03:00+2wnw2895100 0.0 1020264
06:00+4wnw27820 0.0 1023248
09:00+9wnw24510 0.0 10241017
12:00+13w34335 0.0 10251948
15:00+14wsw343235 0.0 10262206
18:00+13sw244082 0.0 10261799
21:00+8s2663100 0.0 102896
11 may, tue
tue1100:00+6s3107399 0.0 1028192
03:00+8ssw41265100 0.0 1029390
06:00+8ssw41164100 0.0 1029413
09:00+12ssw595656 0.0 1029529
12:00+19sw684685 0.0 10281206
15:00+21sw5744100 0.0 10281503
18:00+19sw3755100 0.0 1028537
21:00+13ssw398011 0.0 1029153
12 may, wed
wed1200:00+11ssw298898 0.0 1030162
03:00+9ssw259221 0.0 1031104
06:00+12ssw257589 0.0 1030167
09:00+18sw345230 0.0 1030585
12:00+22sw34396 0.0 10291274
15:00+24sw34371 0.0 10281627
18:00+23ssw24430 0.0 1028523
21:00+16s22670 0.0 102812
13 may, thu
thu1300:00+13s22785 0.0 102822
03:00+12s228238 0.0 102815
06:00+15s23665 0.0 1028131
09:00+20s23420 0.0 1027661
12:00+24s23304 0.0 10261533
15:00+25s24325 0.0 10242313
18:00+23ssw3646100 0.0 1023651
21:00+17se22655 0.0 102340